Regional Weather Roundup
Issued by NWS

Home | Current Version | Previous Version | Text Only | Print | Product List | Glossary On
Versions: 1 2 3 4 5 6 7 8 9 10 11 12 13 14 15 16 17 18 19 20 21 22 23 24 25 26 27 28 29 30 31 32 33 34 35 36 37 38 39 40 41 42 43 44 45 46 47 48 49 50
000
ASUS43 KLSX 300407
RWRMO

WEATHER SUMMARY FOR MISSOURI
NATIONAL WEATHER SERVICE SPRINGFIELD MO
1100 PM CDT FRI APR 29 2016

NOTE: "FAIR" INDICATES FEW OR NO CLOUDS BELOW 12,000 FEET WITH NO
       SIGNIFICANT WEATHER AND/OR OBSTRUCTIONS TO VISIBILITY.
       CURRENT SKY AND/OR WEATHER CONDITIONS ARE NOT AVAILABLE FOR
       CHILLICOTHE AND FARMINGTON.

MOZ001>031-035>038-043-044-053-054-300500-
...NORTHERN AND WESTERN MISSOURI...

CITY           SKY/WX    TMP DP  RH WIND       PRES   REMARKS
KANSAS CTY INT LGT RAIN  52  49  89 E18G24    29.81S FOG
KANSAS C DTWN  LGT RAIN  54  51  90 E15G22    29.79F
LEE`S SUMMIT   CLOUDY    54  53  97 E15       29.81R
ST JOSEPH      CLOUDY    51  47  86 E15       29.85F
CHILLICOTHE      N/A     52  48  86 NE10G18   29.87F
KIRKSVILLE     CLOUDY    50  46  86 E15G24    29.93F

$$
MOZ066>068-077>081-088>096-101>105-300500-
...SOUTHWEST MISSOURI...

CITY           SKY/WX    TMP DP  RH WIND       PRES   REMARKS
SPRINGFIELD    LGT RAIN  60  57  89 N7        29.81S
JOPLIN         RAIN      58  57  97 E18G25    29.76F FOG

$$
MOZ032>034-039>042-045>050-055>058-069>072-300500-
...CENTRAL MISSOURI...

CITY           SKY/WX    TMP DP  RH WIND       PRES   REMARKS
COLUMBIA       LGT RAIN  57  54  89 E8        29.91R
JEFFERSON CITY RAIN      57  55  93 E10       29.90F FOG
ROLLA          RAIN      56  55  97 E18G25    29.88F FOG
SEDALIA        LGT RAIN  57  55  93 SE21G32   29.85F
WHITEMAN AFB   DRIZZLE   55  55 100 SE18G30   29.78F
WARRENSBURG    LGT RAIN  55  54  94 E12G18    29.80R
OSAGE BEACH    CLOUDY    57  48  72 NE12      29.88F

$$
MOZ051-052-059>065-300500-
...EAST CENTRAL MISSOURI...

CITY           SKY/WX    TMP DP  RH WIND       PRES   REMARKS
ST LOUIS INTL  LGT RAIN  63  53  70 E12G20    29.95F
SPIRIT OF STL  LGT RAIN  61  55  82 SE5       29.95R
ST CHARLES     CLOUDY    60  55  83 E9        29.95F

$$
MOZ072>076-082>087-097>100-106>115-300500-
...SOUTH CENTRAL AND SOUTHEAST MISSOURI...

CITY           SKY/WX    TMP DP  RH WIND       PRES   REMARKS
CAPE GIRARDEAU CLOUDY    61  57  87 E9        29.91F
FARMINGTON     CLOUDY    58  56  93 E9        29.92F
POPLAR BLUFF   CLOUDY    61  58  90 NE8       29.89S
WEST PLAINS    CLOUDY    60  57  89 E5        29.87F FOG

$$



USA.gov is the U.S. government's official web portal to all federal, state and local government web resources and services.